Zurück zum Katalog

STARLINK-31871

AktivKommunikationVLEO
NORAD 59673·PAYLOAD·🇺🇸 United States

Gestartet May 6, 2024 von Cape Canaveral Space Force Station

Loading…

Nächste Überflüge (nächste 24 Stunden)

TLE

AktuellSource: CelesTrak SupGP

Epoche: Sep 15, 2026, 02:07 UTC

1 59673C 24084V   26258.08868056 -.00027017  00000+0 -98016-3 0  2585
2 59673  43.0005  52.0780 0001750 278.3543 318.8699 15.27537660    18

Verfolge STARLINK-31871 in Echtzeit mit AllMySat

Download on the App Store